METEOR 2-11 DEB, 42456

Orbit data source: Space-Track

METEOR 2-11 DEB, 42456 is space debris in LEO originally from a launch on Thu, 05 Jul 1984 UTC launched from the Plesetsk Missile And Space Complex (PKMTR). Debris objects in space refer to the collection of defunct objects orbiting the Earth. Examples of debris include non-operational satellites, rocket bodies, and fragments generated from explosions, collisions, or faulty payload assembly.

Loading next visibility...
Identifier
42456, 1984-072S
Orbit
LEO
Country
Flag of CISCIS
Related business
Manufacturer
Unknown
Mission
Spacecraft
Bus & Motor
Unknown
Mass
Unknown
Launch date (UTC)
1984-07-05 (41 years ago)
Launch vehicle
Unknown
Launch site
Plesetsk Missile And Space Complex (PKMTR)
Object type
Payload
Rocket body
Debris
Shape & HBR
Unknown shape, 0.1 m
Radar Cross Section
Small (<0.1 m²)

Expand to show TLE details & history
Last TLE update: 5 days ago

TLE from 5 days ago
0 METEOR 2-11 DEB
1 42456U 84072S   25298.50624778  .00002839  00000-0  20866-2 0  9993
2 42456  82.5381 214.7330 0040790 330.5203  29.3662 13.94969605554921
Epoch: 2025-10-25T12:08Z
TLE epoch observation values (Epoch: 2025-10-25T12:08:59.808Z)
Latitude
-0.00007°
Longitude
-1.65203°
Altitude
888.295 km
Speed
7.421 km/s
True Right ascension
14h 18m 55s
True Declination
0° 00' 00"
Sunlit
Object was in daylight at epoch
Visualization orbit readout
Latitude
Unknown
Longitude
Unknown
Altitude
Unknown
Speed
Unknown
Apparent Right ascension
Unknown
Apparent Declination
Unknown
Sunlit
N/A
Visualization observer readout
Local Sidereal Time
14:56:46
Azimuth
Unknown
Elevation
Unknown
Doppler factor
Unknown
Orbital elements
Apogee altitude
938.126 km
Perigee altitude
878.682 km
Semi-major axis
7,286.541 km
Eccentricity
0.00408
Inclination
82.5381°
RAAN
214.733°
Arg. of periapsis
330.5203°
True anomaly
29.59644°
Mean anomaly
29.3662°
Eccentric anomaly
29.48122°
Mean motion
3.48948 °/min
Orbital period
103.17 mins
BSTAR
0.0020866
Loading maneuver chart data...
Computing Atmospheric mass density...
Loading historical data...
Loading historical data...
Loading historical data...
Loading historical data...
Loading historical data...
Loading historical data...
Loading historical data...

Documentation

Showing up to 5 results
|